This is the latest recevied weather packets stored in our database for station/object K5GHS-1. If no packets are shown the sender has not sent any weather packets the latest 10 day(s).
| Time | Temp. | Humidity | Pressure | Rain* | Wind** | Luminosity | Snow |
|---|---|---|---|---|---|---|---|
| 1777659832 | 20° C | 55% | 1014.4 hPa | 0 mm | - | 416 W/m² | - |
| 1777659529 | 19.44° C | 53% | 1014.3 hPa | 0 mm | - | 622 W/m² | - |
| 1777659226 | 18.89° C | 56% | 1014.5 hPa | 0 mm | - | 516 W/m² | - |
| 1777658923 | 19.44° C | 56% | 1014.9 hPa | 0 mm | - | 400 W/m² | - |
| 1777658619 | 18.89° C | 54% | 1014.9 hPa | 0 mm | - | 487 W/m² | - |
| 1777658317 | 18.89° C | 55% | 1015.1 hPa | 0 mm | - | 458 W/m² | - |
| 1777658013 | 18.89° C | 55% | 1015 hPa | 0 mm | - | 551 W/m² | - |
| 1777657710 | 18.89° C | 57% | 1014.8 hPa | 0 mm | - | 419 W/m² | - |
| 1777657407 | 19.44° C | 57% | 1015.1 hPa | 0 mm | - | 344 W/m² | - |
| 1777657105 | 19.44° C | 59% | 1015.2 hPa | 0 mm | - | 516 W/m² | - |
| 1777656803 | 18.89° C | 59% | 1015.3 hPa | 0 mm | - | 378 W/m² | - |
| 1777656498 | 18.89° C | 58% | 1015.6 hPa | 0 mm | - | 279 W/m² | - |
| 1777656193 | 18.89° C | 58% | 1015.4 hPa | 0 mm | - | 513 W/m² | - |
| 1777655889 | 18.89° C | 58% | 1015.4 hPa | 0 mm | - | 814 W/m² | - |
| 1777655586 | 17.78° C | 63% | 1015.3 hPa | 0 mm | - | 221 W/m² | - |
| 1777655283 | 18.33° C | 61% | 1015.4 hPa | 0 mm | - | 219 W/m² | - |
| 1777654980 | 18.33° C | 63% | 1015.3 hPa | 0 mm | - | 934 W/m² | - |
| 1777654677 | 17.78° C | 65% | 1015.4 hPa | 0 mm | - | 871 W/m² | - |
| 1777654375 | 17.78° C | 66% | 1015.8 hPa | 0 mm | - | 461 W/m² | - |
| 1777654072 | 17.22° C | 68% | 1015.6 hPa | 0 mm | - | 356 W/m² | - |
| 1777653769 | 16.67° C | 70% | 1015.8 hPa | 0 mm | - | 386 W/m² | - |
| 1777653460 | 16.67° C | 72% | 1015.9 hPa | 0 mm | - | 272 W/m² | - |
| 1777653158 | 16.11° C | 73% | 1015.9 hPa | 0 mm | - | 269 W/m² | - |
| 1777652853 | 16.11° C | 72% | 1016.2 hPa | 0 mm | - | 228 W/m² | - |
| 1777652550 | 16.11° C | 74% | 1015.9 hPa | 0 mm | - | 338 W/m² | - |
* Rain latest hour (hover to see other rain measurements)
** Current wind speed in m/s (hover to see current wind gust speed)